Location: Bismarck
(46.7731°N, 100.8200°W)
Time: 23:51:41
(UTC-05:00)

Daily predictions for brighter satellites

Satellite Brightness Start Highest point End
(mag) Time Altitude Azimuth Time Altitude Azimuth Time Altitude Azimuth
NOSS 3-2 (A) 3.5 21:53:24 10° SSW 21:59:24 75° SE 22:06:05 10° NE
Helios 1B rocket 2.5 21:57:01 10° NNE 22:01:07 61° ESE 22:05:11 10° S
Resurs 01 Rocket 3.9 22:06:19 10° SSW 22:09:52 24° W 22:13:29 10° NW
Cosmos 1782 3.5 22:07:15 10° N 22:11:02 38° ENE 22:14:46 10° SE
USA 215 3.4 22:04:42 10° SE 22:11:17 83° SW 22:17:54 10° NW
ATLAS 5 CENTAUR R/B 3.0 22:05:50 10° NNW 22:11:23 46° NE 22:17:29 10° ESE
Lacrosse 4 Rocket 3.0 22:07:31 10° NNW 22:11:26 28° NE 22:15:16 10° ESE
SAR-Lupe-4 3.5 22:07:59 10° SSE 22:11:33 86° ENE 22:15:10 10° NNW
Cosmos 1933 Rocket 4.5 22:11:04 10° SSW 22:15:18 52° WNW 22:19:34 10° N
YAOGAN 6 3.2 22:12:36 10° S 22:16:16 58° W 22:19:55 10° NNW
Envisat 4.3 22:12:11 10° SSW 22:16:56 39° W 22:21:42 10° NNW
NOSS 3-2 (C) 3.5 22:12:46 10° SSW 22:18:48 77° SE 22:25:31 10° NE
Meteor 2-3 Rocket 3.8 22:13:41 10° S 22:19:25 88° E 22:25:07 10° NNE
Cosmos 1898 Rocket 4.3 22:14:27 10° SW 22:19:40 58° WNW 22:24:57 10° NNE
H-2A R/B 4.2 22:21:58 10° ENE 22:23:17 11° ENE 22:24:38 10° NE
MetOp-B 4.2 22:18:13 10° SSE 22:23:33 71° ENE 22:28:53 10° N
Cosmos 990 Rocket 4.2 22:20:24 10° SSW 22:25:37 79° WNW 22:30:53 10° NNE
GPS 2-04 Rocket1 4.4 22:25:13 10° SSW 22:27:09 14° S 22:28:27 12° SSE
Cosmos 2279 Rocket 4.2 22:21:14 10° N 22:27:26 60° ENE 22:33:35 10° SSE
Helios 1A 4.2 22:25:16 10° S 22:29:12 40° W 22:33:12 10° NNW
Cosmos 1125 Rocket 4.0 22:25:05 10° S 22:29:54 38° ESE 22:34:44 10° NE
Aureole 3 2.8 22:27:17 10° S 22:30:16 50° E 22:33:11 10° NNE
ARGOS 3.2 22:25:19 10° SSE 22:30:39 69° ENE 22:36:00 10° N
SAR-Lupe-1 4.5 22:29:26 10° S 22:32:58 61° WSW 22:36:31 10° NNW
ISS -3.0 22:31:12 10° SSW 22:34:03 29° SE 22:36:55 10° E
Aureole 1 4.2 22:31:39 10° SSW 22:34:40 74° ESE 22:38:10 10° NNE
CENTAUR R/B 2.9 22:34:44 10° S 22:40:22 42° ESE 22:46:43 10° NE
Cosmos 1825 2.3 22:38:01 10° S 22:41:41 52° E 22:45:23 10° NNE
Cosmos 1408 2.7 22:40:36 10° S 22:44:14 60° E 22:47:56 10° NNE
SL-08 RB Rocket 3.8 22:41:05 13° SSE 22:45:16 74° ENE 22:49:57 10° N
Gbstr 26 Del rocket 4.2 22:42:36 10° WNW 22:47:17 43° N 22:51:14 10° ENE
COSMOS 2455 2.8 22:41:34 10° SSW 22:47:34 79° ESE 22:53:37 10° NE
Okean 1-7 3.3 22:43:52 10° NNW 22:48:16 70° W 22:52:38 10° S
Cosmos 2227 Rocket 4.5 22:45:48 10° N 22:48:23 13° NE 22:50:57 10° ENE
Terra 2.8 22:45:22 15° ESE 22:48:37 32° ENE 22:52:51 10° N
H-2A R/B 2.2 22:44:20 14° SSE 22:49:00 67° ENE 22:54:18 10° N
Tiangong 2 3.0 22:48:50 10° WSW 22:51:08 18° SSW 22:52:13 16° S
SPOT 5 3.1 22:49:17 12° SSE 22:54:14 88° WSW 22:59:35 10° NNW
DNEPR-1 R/B 3.9 22:58:15 10° SSW 23:03:15 53° ESE 23:07:37 10° NE
Cosmos 2344 3.8 22:57:02 10° S 23:04:16 48° ESE 23:12:19 10° NE
Cosmos 1733 Rocket 3.3 23:07:00 21° SSE 23:09:36 50° E 23:13:48 10° NNE
Lacrosse 5 rocket 0.9 23:07:30 10° SW 23:11:02 62° SE 23:14:42 10° ENE
deb Kosmos-1763 4.3 23:07:55 10° NNW 23:11:40 65° WSW 23:13:51 23° S
Cosmos 2263 4.2 23:06:09 10° SSW 23:11:56 86° ESE 23:17:42 10° NNE
Cosmos 1346 4.5 23:11:59 10° NNE 23:14:08 21° ENE 23:14:20 20° E
Cosmos 1943 Rocket 2.1 23:08:47 10° SSW 23:14:21 73° ESE 23:19:54 10° NNE
Cosmos 158 Rocket 4.1 23:09:38 10° NNW 23:14:29 62° WSW 23:17:54 19° S
Cosmos 1340 3.0 23:11:52 10° NNW 23:15:38 62° W 23:18:04 20° S
Nimbus 7 Rocket 4.3 23:16:22 10° NNE 23:22:19 81° ESE 23:28:04 11° SSW
BREEZE-M DEB 4.1 23:09:21 10° WSW 23:22:51 79° NNW 23:26:28 10° ENE
Cosmos 1606 4.1 23:19:34 10° NNW 23:23:01 33° W 23:26:04 12° SSW
Cosmos 1833 4.3 23:21:19 10° NNW 23:27:09 77° WSW 23:30:40 24° SSE
Cosmos 2369 Rocket 3.0 23:23:10 10° SW 23:28:43 55° WNW 23:34:20 10° NNE
Cosmos 1975 Rocket 4.5 23:25:17 10° NNE 23:29:03 26° ENE 23:30:38 21° ESE
DMSP B5D2-2 4.0 23:24:25 10° NNE 23:29:39 74° ESE 23:33:27 19° S
Meteor 1-27 Rocket 4.1 23:27:45 10° NNW 23:33:30 64° W 23:37:36 19° S
Meteor 2-20 4.5 23:30:36 22° S 23:34:36 64° E 23:40:40 10° NNE
CARTOSAT-1 3.5 23:39:25 32° S 23:41:25 82° WSW 23:45:47 10° NNW
Cosmos 1674 Rocket 3.5 23:39:02 10° NNW 23:43:23 77° W 23:45:19 32° S
Cosmos 2297 Rocket 4.0 23:39:43 10° N 23:44:08 22° NE 23:48:16 11° E
Cosmos 2251 Rocket 3.6 23:39:53 10° NNW 23:45:08 68° ENE 23:47:31 32° SE
Cosmos 1378 Rocket 3.6 23:41:08 10° N 23:45:33 64° E 23:47:08 37° SE
GEOS 3 Rocket 3.9 23:43:40 28° S 23:46:13 55° SW 23:51:23 10° NW
Lacrosse 4 Rocket 2.3 23:46:01 10° NW 23:50:19 43° WSW 23:52:03 29° SSW
Cosmos 1092 Rocket 3.9 23:47:18 24° S 23:51:15 81° E 23:57:25 10° N
